Year,Month,Day,Hour,Minute,Value (Times are PST for temperature in C)
2019,03,19,00,00,10.80
2019,03,19,00,01,10.90
2019,03,19,00,02,10.90
2019,03,19,00,03,10.90
2019,03,19,00,04,10.90
2019,03,19,00,05,10.90
2019,03,19,00,06,10.90
2019,03,19,00,07,11.00
2019,03,19,00,08,11.10
2019,03,19,00,09,11.20
2019,03,19,00,10,11.30
2019,03,19,00,11,11.30
2019,03,19,00,12,11.40
2019,03,19,00,13,11.40
2019,03,19,00,14,11.40
2019,03,19,00,15,11.40
2019,03,19,00,16,11.40
2019,03,19,00,17,11.40
2019,03,19,00,18,11.40
2019,03,19,00,19,11.40
2019,03,19,00,20,11.50
2019,03,19,00,21,11.60
2019,03,19,00,22,11.60
2019,03,19,00,23,11.60
2019,03,19,00,24,11.60
2019,03,19,00,25,11.70
2019,03,19,00,26,11.70
2019,03,19,00,27,11.60
2019,03,19,00,28,11.60
2019,03,19,00,29,11.60
2019,03,19,00,30,11.50
2019,03,19,00,31,11.40
2019,03,19,00,32,11.40
2019,03,19,00,33,11.40
2019,03,19,00,34,11.40
2019,03,19,00,35,11.30
2019,03,19,00,36,11.30
2019,03,19,00,37,11.30
2019,03,19,00,38,11.20
2019,03,19,00,39,11.10
2019,03,19,00,40,11.10
2019,03,19,00,41,11.10
2019,03,19,00,42,10.90
2019,03,19,00,43,10.90
2019,03,19,00,44,10.90
2019,03,19,00,45,10.80
2019,03,19,00,46,10.80
2019,03,19,00,47,10.80
2019,03,19,00,48,10.80
2019,03,19,00,49,10.90
2019,03,19,00,50,10.90
2019,03,19,00,51,10.90
2019,03,19,00,52,10.90
2019,03,19,00,53,10.90
2019,03,19,00,54,10.90
2019,03,19,00,55,11.00
2019,03,19,00,56,11.10
2019,03,19,00,57,11.10
2019,03,19,00,58,11.20
2019,03,19,00,59,11.20
2019,03,19,01,00,11.40
2019,03,19,01,01,11.50
2019,03,19,01,02,11.60
2019,03,19,01,03,11.60
2019,03,19,01,04,11.60
2019,03,19,01,05,11.70
2019,03,19,01,06,11.80
2019,03,19,01,07,11.80
2019,03,19,01,08,11.80
2019,03,19,01,09,11.70
2019,03,19,01,10,11.60
2019,03,19,01,11,11.50
2019,03,19,01,12,11.40
2019,03,19,01,13,11.30
2019,03,19,01,14,11.20
2019,03,19,01,15,11.10
2019,03,19,01,16,11.10
2019,03,19,01,17,10.90
2019,03,19,01,18,10.90
2019,03,19,01,19,10.90
2019,03,19,01,20,10.90
2019,03,19,01,21,10.90
2019,03,19,01,22,10.90
2019,03,19,01,23,11.00
2019,03,19,01,24,11.10
2019,03,19,01,25,11.10
2019,03,19,01,26,11.10
2019,03,19,01,27,11.10
2019,03,19,01,28,11.10
2019,03,19,01,29,11.10
2019,03,19,01,30,11.10
2019,03,19,01,31,11.10
2019,03,19,01,32,11.10
2019,03,19,01,33,11.00
2019,03,19,01,34,10.90
2019,03,19,01,35,10.90
2019,03,19,01,36,10.90
2019,03,19,01,37,10.90
2019,03,19,01,38,10.90
2019,03,19,01,39,10.90
2019,03,19,01,40,10.90
2019,03,19,01,41,10.80
2019,03,19,01,42,10.70
2019,03,19,01,43,10.60
2019,03,19,01,44,10.60
2019,03,19,01,45,10.50
2019,03,19,01,46,10.40
2019,03,19,01,47,10.40
2019,03,19,01,48,10.40
2019,03,19,01,49,10.40
2019,03,19,01,50,10.40
2019,03,19,01,51,10.30
2019,03,19,01,52,10.20
2019,03,19,01,53,10.20
2019,03,19,01,54,10.20
2019,03,19,01,55,10.10
2019,03,19,01,56,10.10
2019,03,19,01,57,10.10
2019,03,19,01,58,10.10
2019,03,19,01,59,10.20
2019,03,19,02,00,10.30
2019,03,19,02,01,10.30
2019,03,19,02,02,10.30
2019,03,19,02,03,10.30
2019,03,19,02,04,10.40
2019,03,19,02,05,10.40
2019,03,19,02,06,10.40
2019,03,19,02,07,10.40
2019,03,19,02,08,10.60
2019,03,19,02,09,10.60
2019,03,19,02,10,10.60
2019,03,19,02,11,10.70
2019,03,19,02,12,10.70
2019,03,19,02,13,10.60
2019,03,19,02,14,10.60
2019,03,19,02,15,10.60
2019,03,19,02,16,10.60
2019,03,19,02,17,10.60
2019,03,19,02,18,10.50
2019,03,19,02,19,10.40
2019,03,19,02,20,10.30
2019,03,19,02,21,10.30
2019,03,19,02,22,10.20
2019,03,19,02,23,10.20
2019,03,19,02,24,10.20
2019,03,19,02,25,10.10
2019,03,19,02,26,10.10
2019,03,19,02,27,10.10
2019,03,19,02,28,10.00
2019,03,19,02,29,9.90
2019,03,19,02,30,9.80
2019,03,19,02,31,9.80
2019,03,19,02,32,9.70
2019,03,19,02,33,9.70
2019,03,19,02,34,9.70
2019,03,19,02,35,9.60
2019,03,19,02,36,9.60
2019,03,19,02,37,9.50
2019,03,19,02,38,9.50
2019,03,19,02,39,9.40
2019,03,19,02,40,9.30
2019,03,19,02,41,9.20
2019,03,19,02,42,9.20
2019,03,19,02,43,9.10
2019,03,19,02,44,9.00
2019,03,19,02,45,8.90
2019,03,19,02,46,8.80
2019,03,19,02,47,8.80
2019,03,19,02,48,8.70
2019,03,19,02,49,8.70
2019,03,19,02,50,8.70
2019,03,19,02,51,8.70
2019,03,19,02,52,8.70
2019,03,19,02,53,8.70
2019,03,19,02,54,8.70
2019,03,19,02,55,8.70
2019,03,19,02,56,8.60
2019,03,19,02,57,8.60
2019,03,19,02,58,8.50
2019,03,19,02,59,8.50
2019,03,19,03,00,8.50
2019,03,19,03,01,8.50
2019,03,19,03,02,8.50
2019,03,19,03,03,8.50
2019,03,19,03,04,8.50
2019,03,19,03,05,8.50
2019,03,19,03,06,8.50
2019,03,19,03,07,8.60
2019,03,19,03,08,8.70
2019,03,19,03,09,8.70
2019,03,19,03,10,8.80
2019,03,19,03,11,8.90
2019,03,19,03,12,9.00
2019,03,19,03,13,9.20
2019,03,19,03,14,9.30
2019,03,19,03,15,9.50
2019,03,19,03,16,9.70
2019,03,19,03,17,9.90
2019,03,19,03,18,10.10
2019,03,19,03,19,10.30
2019,03,19,03,20,10.40
2019,03,19,03,21,10.40
2019,03,19,03,22,10.40
2019,03,19,03,23,10.40
2019,03,19,03,24,10.40
2019,03,19,03,25,10.40
2019,03,19,03,26,10.30
2019,03,19,03,27,10.30
2019,03,19,03,28,10.30
2019,03,19,03,29,10.30
2019,03,19,03,30,10.20
2019,03,19,03,31,10.20
2019,03,19,03,32,10.20
2019,03,19,03,33,10.20
2019,03,19,03,34,10.20
2019,03,19,03,35,10.20
2019,03,19,03,36,10.10
2019,03,19,03,37,10.10
2019,03,19,03,38,10.10
2019,03,19,03,39,10.10
2019,03,19,03,40,9.90
2019,03,19,03,41,9.90
2019,03,19,03,42,9.90
2019,03,19,03,43,9.90
2019,03,19,03,44,9.90
2019,03,19,03,45,9.90
2019,03,19,03,46,9.90
2019,03,19,03,47,9.90
2019,03,19,03,48,9.80
2019,03,19,03,49,9.80
2019,03,19,03,50,9.70
2019,03,19,03,51,9.70
2019,03,19,03,52,9.60
2019,03,19,03,53,9.50
2019,03,19,03,54,9.40
2019,03,19,03,55,9.40
2019,03,19,03,56,9.30
2019,03,19,03,57,9.20
2019,03,19,03,58,9.20
2019,03,19,03,59,9.20
2019,03,19,04,00,9.20
2019,03,19,04,01,9.20
2019,03,19,04,02,9.20
2019,03,19,04,03,9.20
2019,03,19,04,04,9.20
2019,03,19,04,05,9.20
2019,03,19,04,06,9.20
2019,03,19,04,07,9.20
2019,03,19,04,08,9.10
2019,03,19,04,09,9.00
2019,03,19,04,10,9.00
2019,03,19,04,11,9.00
2019,03,19,04,12,8.90
2019,03,19,04,13,8.90
2019,03,19,04,14,8.80
2019,03,19,04,15,8.70
2019,03,19,04,16,8.70
2019,03,19,04,17,8.80
2019,03,19,04,18,8.80
2019,03,19,04,19,8.80
2019,03,19,04,20,8.70
2019,03,19,04,21,8.70
2019,03,19,04,22,8.70
2019,03,19,04,23,8.60
2019,03,19,04,24,8.50
2019,03,19,04,25,8.50
2019,03,19,04,26,8.40
2019,03,19,04,27,8.30
2019,03,19,04,28,8.30
2019,03,19,04,29,8.20
2019,03,19,04,30,8.10
2019,03,19,04,31,8.00
2019,03,19,04,32,7.90
2019,03,19,04,33,7.80
2019,03,19,04,34,7.80
2019,03,19,04,35,7.70
2019,03,19,04,36,7.70
2019,03,19,04,37,7.60
2019,03,19,04,38,7.50
2019,03,19,04,39,7.50
2019,03,19,04,40,7.40
2019,03,19,04,41,7.30
2019,03,19,04,42,7.30
2019,03,19,04,43,7.30
2019,03,19,04,44,7.30
2019,03,19,04,45,7.30
2019,03,19,04,46,7.30
2019,03,19,04,47,7.30
2019,03,19,04,48,7.30
2019,03,19,04,49,7.20
2019,03,19,04,50,7.20
2019,03,19,04,51,7.20
2019,03,19,04,52,7.10
2019,03,19,04,53,7.10
2019,03,19,04,54,7.10
2019,03,19,04,55,7.00
2019,03,19,04,56,7.00
2019,03,19,04,57,7.00
2019,03,19,04,58,7.00
2019,03,19,04,59,6.90
2019,03,19,05,00,6.90
2019,03,19,05,01,6.80
2019,03,19,05,02,6.80
2019,03,19,05,03,6.80
2019,03,19,05,04,6.70
2019,03,19,05,05,6.70
2019,03,19,05,06,6.70
2019,03,19,05,07,6.80
2019,03,19,05,08,6.80
2019,03,19,05,09,6.80
2019,03,19,05,10,6.80
2019,03,19,05,11,6.80
2019,03,19,05,12,6.90
2019,03,19,05,13,7.00
2019,03,19,05,14,7.00
2019,03,19,05,15,7.10
2019,03,19,05,16,7.10
2019,03,19,05,17,7.10
2019,03,19,05,18,7.10
2019,03,19,05,19,7.00
2019,03,19,05,20,7.00
2019,03,19,05,21,7.00
2019,03,19,05,22,7.00
2019,03,19,05,23,7.00
2019,03,19,05,24,7.00
2019,03,19,05,25,7.00
2019,03,19,05,26,7.00
2019,03,19,05,27,7.10
2019,03,19,05,28,7.20
2019,03,19,05,29,7.20
2019,03,19,05,30,7.20
2019,03,19,05,31,7.20
2019,03,19,05,32,7.20
2019,03,19,05,33,7.20
2019,03,19,05,34,7.20
2019,03,19,05,35,7.10
2019,03,19,05,36,7.10
2019,03,19,05,37,7.00
2019,03,19,05,38,6.90
2019,03,19,05,39,6.80
2019,03,19,05,40,6.80
2019,03,19,05,41,6.70
2019,03,19,05,42,6.70
2019,03,19,05,43,6.70
2019,03,19,05,44,6.70
2019,03,19,05,45,6.80
2019,03,19,05,46,6.80
2019,03,19,05,47,6.90
2019,03,19,05,48,6.90
2019,03,19,05,49,7.00
2019,03,19,05,50,7.10
2019,03,19,05,51,7.20
2019,03,19,05,52,7.20
2019,03,19,05,53,7.30
2019,03,19,05,54,7.40
2019,03,19,05,55,7.50
2019,03,19,05,56,7.50
2019,03,19,05,57,7.60
2019,03,19,05,58,7.70
2019,03,19,05,59,7.80
2019,03,19,06,00,7.80
2019,03,19,06,01,7.80
2019,03,19,06,02,7.80
2019,03,19,06,03,7.90
2019,03,19,06,04,8.00
2019,03,19,06,05,8.10
2019,03,19,06,06,8.00
2019,03,19,06,07,8.00
2019,03,19,06,08,8.00
2019,03,19,06,09,7.90
2019,03,19,06,10,7.90
2019,03,19,06,11,7.80
2019,03,19,06,12,7.80
2019,03,19,06,13,7.80
2019,03,19,06,14,7.70
2019,03,19,06,15,7.70
2019,03,19,06,16,7.60
2019,03,19,06,17,7.60
2019,03,19,06,18,7.60
2019,03,19,06,19,7.60
2019,03,19,06,20,7.60
2019,03,19,06,21,7.50
2019,03,19,06,22,7.50
2019,03,19,06,23,7.50
2019,03,19,06,24,7.40
2019,03,19,06,25,7.40
2019,03,19,06,26,7.40
2019,03,19,06,27,7.40
2019,03,19,06,28,7.30
2019,03,19,06,29,7.30
2019,03,19,06,30,7.30
2019,03,19,06,31,7.30
2019,03,19,06,32,7.20
2019,03,19,06,33,7.20
2019,03,19,06,34,7.10
2019,03,19,06,35,7.10
2019,03,19,06,36,7.00
2019,03,19,06,37,7.00
2019,03,19,06,38,6.90
2019,03,19,06,39,6.80
2019,03,19,06,40,6.80
2019,03,19,06,41,6.70
2019,03,19,06,42,6.60
2019,03,19,06,43,6.60
2019,03,19,06,44,6.60
2019,03,19,06,45,6.50
2019,03,19,06,46,6.40
2019,03,19,06,47,6.40
2019,03,19,06,48,6.40
2019,03,19,06,49,6.40
2019,03,19,06,50,6.40
2019,03,19,06,51,6.40
2019,03,19,06,52,6.30
2019,03,19,06,53,6.30
2019,03,19,06,54,6.30
2019,03,19,06,55,6.40
2019,03,19,06,56,6.40
2019,03,19,06,57,6.50
2019,03,19,06,58,6.60
2019,03,19,06,59,6.60
2019,03,19,07,00,6.60
2019,03,19,07,01,6.60
2019,03,19,07,02,6.60
2019,03,19,07,03,6.50
2019,03,19,07,04,6.40
2019,03,19,07,05,6.40
2019,03,19,07,06,6.40
2019,03,19,07,07,6.40
2019,03,19,07,08,6.40
2019,03,19,07,09,6.40
2019,03,19,07,10,6.40
2019,03,19,07,11,6.40
2019,03,19,07,12,6.40
2019,03,19,07,13,6.40
2019,03,19,07,14,6.30
2019,03,19,07,15,6.30
2019,03,19,07,16,6.30
2019,03,19,07,17,6.30
2019,03,19,07,18,6.30
2019,03,19,07,19,6.30
2019,03,19,07,20,6.30
2019,03,19,07,21,6.30
2019,03,19,07,22,6.30
2019,03,19,07,23,6.30
2019,03,19,07,24,6.30
2019,03,19,07,25,6.40
2019,03,19,07,26,6.40
2019,03,19,07,27,6.50
2019,03,19,07,28,6.60
2019,03,19,07,29,6.70
2019,03,19,07,30,6.60
2019,03,19,07,31,6.60
2019,03,19,07,32,6.60
2019,03,19,07,33,6.60
2019,03,19,07,34,6.50
2019,03,19,07,35,6.40
2019,03,19,07,36,6.40
2019,03,19,07,37,6.40
2019,03,19,07,38,6.40
2019,03,19,07,39,6.30
2019,03,19,07,40,6.30
2019,03,19,07,41,6.30
2019,03,19,07,42,6.30
2019,03,19,07,43,6.30
2019,03,19,07,44,6.30
2019,03,19,07,45,6.30
2019,03,19,07,46,6.30
2019,03,19,07,47,6.40
2019,03,19,07,48,6.40
2019,03,19,07,49,6.30
2019,03,19,07,50,6.40
2019,03,19,07,51,6.40
2019,03,19,07,52,6.50
2019,03,19,07,53,6.60
2019,03,19,07,54,6.70
2019,03,19,07,55,6.70
2019,03,19,07,56,6.80
2019,03,19,07,57,6.80
2019,03,19,07,58,6.80
2019,03,19,07,59,6.80
2019,03,19,08,00,6.80
2019,03,19,08,01,6.80
2019,03,19,08,02,6.90
2019,03,19,08,03,7.00
2019,03,19,08,04,7.10
2019,03,19,08,05,7.10
2019,03,19,08,06,7.20
2019,03,19,08,07,7.20
2019,03,19,08,08,7.30
2019,03,19,08,09,7.30
2019,03,19,08,10,7.30
2019,03,19,08,11,7.40
2019,03,19,08,12,7.40
2019,03,19,08,13,7.50
2019,03,19,08,14,7.50
2019,03,19,08,15,7.60
2019,03,19,08,16,7.70
2019,03,19,08,17,7.70
2019,03,19,08,18,7.80
2019,03,19,08,19,7.90
2019,03,19,08,20,8.00
2019,03,19,08,21,8.00
2019,03,19,08,22,8.20
2019,03,19,08,23,8.20
2019,03,19,08,24,8.30
2019,03,19,08,25,8.40
2019,03,19,08,26,8.40
2019,03,19,08,27,8.50
2019,03,19,08,28,8.50
2019,03,19,08,29,8.60
2019,03,19,08,30,8.70
2019,03,19,08,31,8.80
2019,03,19,08,32,8.90
2019,03,19,08,33,9.00
2019,03,19,08,34,9.10
2019,03,19,08,35,9.20
2019,03,19,08,36,9.20
2019,03,19,08,37,9.30
2019,03,19,08,38,9.30
2019,03,19,08,39,9.40
2019,03,19,08,40,9.50
2019,03,19,08,41,9.50
2019,03,19,08,42,9.60
2019,03,19,08,43,9.70
2019,03,19,08,44,9.70
2019,03,19,08,45,9.70
2019,03,19,08,46,9.80
2019,03,19,08,47,9.80
2019,03,19,08,48,9.90
2019,03,19,08,49,9.90
2019,03,19,08,50,10.00
2019,03,19,08,51,10.10
2019,03,19,08,52,10.10
2019,03,19,08,53,10.20
2019,03,19,08,54,10.30
2019,03,19,08,55,10.30
2019,03,19,08,56,10.40
2019,03,19,08,57,10.40
2019,03,19,08,58,10.50
2019,03,19,08,59,10.60
2019,03,19,09,00,10.60
2019,03,19,09,01,10.70
2019,03,19,09,02,10.80
2019,03,19,09,03,10.90
2019,03,19,09,04,10.90
2019,03,19,09,05,11.00
2019,03,19,09,06,11.10
2019,03,19,09,07,11.10
2019,03,19,09,08,11.20
2019,03,19,09,09,11.20
2019,03,19,09,10,11.30
2019,03,19,09,11,11.30
2019,03,19,09,12,11.30
2019,03,19,09,13,11.40
2019,03,19,09,14,11.40
2019,03,19,09,15,11.40
2019,03,19,09,16,11.40
2019,03,19,09,17,11.40
2019,03,19,09,18,11.50
2019,03,19,09,19,11.60
2019,03,19,09,20,11.60
2019,03,19,09,21,11.70
2019,03,19,09,22,11.80
2019,03,19,09,23,11.80
2019,03,19,09,24,11.80
2019,03,19,09,25,11.80
2019,03,19,09,26,11.90
2019,03,19,09,27,12.00
2019,03,19,09,28,12.00
2019,03,19,09,29,12.10
2019,03,19,09,30,12.10
2019,03,19,09,31,12.20
2019,03,19,09,32,12.30
2019,03,19,09,33,12.30
2019,03,19,09,34,12.40
2019,03,19,09,35,12.50
2019,03,19,09,36,12.60
2019,03,19,09,37,12.70
2019,03,19,09,38,12.70
2019,03,19,09,39,12.80
2019,03,19,09,40,12.80
2019,03,19,09,41,12.90
2019,03,19,09,42,13.00
2019,03,19,09,43,13.00
2019,03,19,09,44,13.10
2019,03,19,09,45,13.20
2019,03,19,09,46,13.30
2019,03,19,09,47,13.30
2019,03,19,09,48,13.40
2019,03,19,09,49,13.50
2019,03,19,09,50,13.50
2019,03,19,09,51,13.60
2019,03,19,09,52,13.70
2019,03,19,09,53,13.80
2019,03,19,09,54,13.90
2019,03,19,09,55,13.90
2019,03,19,09,56,14.00
2019,03,19,09,57,14.10
2019,03,19,09,58,14.20
2019,03,19,09,59,14.20
2019,03,19,10,00,14.30
2019,03,19,10,01,14.40
2019,03,19,10,02,14.40
2019,03,19,10,03,14.40
2019,03,19,10,04,14.50
2019,03,19,10,05,14.50
2019,03,19,10,06,14.50
2019,03,19,10,07,14.50
2019,03,19,10,08,14.50
2019,03,19,10,09,14.60
2019,03,19,10,10,14.50
2019,03,19,10,11,14.50
2019,03,19,10,12,14.60
2019,03,19,10,13,14.60
2019,03,19,10,14,14.70
2019,03,19,10,15,14.70
2019,03,19,10,16,14.80
2019,03,19,10,17,14.80
2019,03,19,10,18,14.80
2019,03,19,10,19,14.90
2019,03,19,10,20,14.90
2019,03,19,10,21,14.90
2019,03,19,10,22,14.90
2019,03,19,10,23,15.00
2019,03,19,10,24,15.00
2019,03,19,10,25,15.00
2019,03,19,10,26,15.00
2019,03,19,10,27,15.00
2019,03,19,10,28,15.00
2019,03,19,10,29,15.10
2019,03,19,10,30,15.10
2019,03,19,10,31,15.10
2019,03,19,10,32,15.10
2019,03,19,10,33,15.10
2019,03,19,10,34,15.20
2019,03,19,10,35,15.20
2019,03,19,10,36,15.20
2019,03,19,10,37,15.20
2019,03,19,10,38,15.20
2019,03,19,10,39,15.20
2019,03,19,10,40,15.20
2019,03,19,10,41,15.30
2019,03,19,10,42,15.30
2019,03,19,10,43,15.30
2019,03,19,10,44,15.30
2019,03,19,10,45,15.40
2019,03,19,10,46,15.50
2019,03,19,10,47,15.50
2019,03,19,10,48,15.60
2019,03,19,10,49,15.70
2019,03,19,10,50,15.70
2019,03,19,10,51,15.80
2019,03,19,10,52,15.80
2019,03,19,10,53,15.80
2019,03,19,10,54,15.80
2019,03,19,10,55,16.00
2019,03,19,10,56,16.10
2019,03,19,10,57,16.10
2019,03,19,10,58,16.10
2019,03,19,10,59,16.10
2019,03,19,11,00,16.20
2019,03,19,11,01,16.30
2019,03,19,11,02,16.30
2019,03,19,11,03,16.40
2019,03,19,11,04,16.40
2019,03,19,11,05,16.40
2019,03,19,11,06,16.50
2019,03,19,11,07,16.60
2019,03,19,11,08,16.70
2019,03,19,11,09,16.70
2019,03,19,11,10,16.70
2019,03,19,11,11,16.70
2019,03,19,11,12,16.60
2019,03,19,11,13,16.60
2019,03,19,11,14,16.60
2019,03,19,11,15,16.70
2019,03,19,11,16,16.70
2019,03,19,11,17,16.80
2019,03,19,11,18,16.90
2019,03,19,11,19,17.00
2019,03,19,11,20,17.10
2019,03,19,11,21,17.10
2019,03,19,11,22,17.20
2019,03,19,11,23,17.30
2019,03,19,11,24,17.30
2019,03,19,11,25,17.30
2019,03,19,11,26,17.30
2019,03,19,11,27,17.40
2019,03,19,11,28,17.30
2019,03,19,11,29,17.30
2019,03,19,11,30,17.30
2019,03,19,11,31,17.20
2019,03,19,11,32,17.20
2019,03,19,11,33,17.10
2019,03,19,11,34,17.10
2019,03,19,11,35,17.10
2019,03,19,11,36,17.20
2019,03,19,11,37,17.20
2019,03,19,11,38,17.10
2019,03,19,11,39,17.10
2019,03,19,11,40,17.10
2019,03,19,11,41,17.20
2019,03,19,11,42,17.20
2019,03,19,11,43,17.30
2019,03,19,11,44,17.30
2019,03,19,11,45,17.30
2019,03,19,11,46,17.30
2019,03,19,11,47,17.30
2019,03,19,11,48,17.30
2019,03,19,11,49,17.40
2019,03,19,11,50,17.50
2019,03,19,11,51,17.50
2019,03,19,11,52,17.60
2019,03,19,11,53,17.70
2019,03,19,11,54,17.70
2019,03,19,11,55,17.70
2019,03,19,11,56,17.70
2019,03,19,11,57,17.80
2019,03,19,11,58,17.90
2019,03,19,11,59,17.90
2019,03,19,12,00,18.00
2019,03,19,12,01,18.20
2019,03,19,12,02,18.20
2019,03,19,12,03,18.30
2019,03,19,12,04,18.30
2019,03,19,12,05,18.30
2019,03,19,12,06,18.40
2019,03,19,12,07,18.30
2019,03,19,12,08,18.40
2019,03,19,12,09,18.50
2019,03,19,12,10,18.50
2019,03,19,12,11,18.60
2019,03,19,12,12,18.70
2019,03,19,12,13,18.80
2019,03,19,12,14,18.80
2019,03,19,12,15,18.80
2019,03,19,12,16,18.90
2019,03,19,12,17,18.90
2019,03,19,12,18,18.90
2019,03,19,12,19,18.90
2019,03,19,12,20,19.00
2019,03,19,12,21,19.10
2019,03,19,12,22,19.10
2019,03,19,12,23,19.10
2019,03,19,12,24,19.00
2019,03,19,12,25,18.90
2019,03,19,12,26,18.90
2019,03,19,12,27,18.90
2019,03,19,12,28,18.90
2019,03,19,12,29,18.90
2019,03,19,12,30,18.90
2019,03,19,12,31,18.90
2019,03,19,12,32,18.90
2019,03,19,12,33,19.10
2019,03,19,12,34,19.10
2019,03,19,12,35,19.10
2019,03,19,12,36,19.10
2019,03,19,12,37,19.20
2019,03,19,12,38,19.30
2019,03,19,12,39,19.30
2019,03,19,12,40,19.30
2019,03,19,12,41,19.40
2019,03,19,12,42,19.40
2019,03,19,12,43,19.50
2019,03,19,12,44,19.60
2019,03,19,12,45,19.60
2019,03,19,12,46,19.70
2019,03,19,12,47,19.80
2019,03,19,12,48,19.80
2019,03,19,12,49,19.80
2019,03,19,12,50,19.80
2019,03,19,12,51,19.80
2019,03,19,12,52,19.70
2019,03,19,12,53,19.60
2019,03,19,12,54,19.60
2019,03,19,12,55,19.70
2019,03,19,12,56,19.70
2019,03,19,12,57,19.80
2019,03,19,12,58,19.80
2019,03,19,12,59,19.80
2019,03,19,13,00,19.80
2019,03,19,13,01,19.80
2019,03,19,13,02,19.80
2019,03,19,13,03,19.80
2019,03,19,13,04,19.80
2019,03,19,13,05,19.90
2019,03,19,13,06,19.90
2019,03,19,13,07,20.00
2019,03,19,13,08,20.10
2019,03,19,13,09,20.10
2019,03,19,13,10,20.20
2019,03,19,13,11,20.20
2019,03,19,13,12,20.10
2019,03,19,13,13,20.00
2019,03,19,13,14,19.90
2019,03,19,13,15,19.90
2019,03,19,13,16,19.90
2019,03,19,13,17,19.90
2019,03,19,13,18,19.90
2019,03,19,13,19,19.90
2019,03,19,13,20,19.90
2019,03,19,13,21,19.90
2019,03,19,13,22,19.90
2019,03,19,13,23,20.00
2019,03,19,13,24,20.10
2019,03,19,13,25,20.20
2019,03,19,13,26,20.20
2019,03,19,13,27,20.20
2019,03,19,13,28,20.20
2019,03,19,13,29,20.20
2019,03,19,13,30,20.20
2019,03,19,13,31,20.30
2019,03,19,13,32,20.30
2019,03,19,13,33,20.30
2019,03,19,13,34,20.40
2019,03,19,13,35,20.40
2019,03,19,13,36,20.50
2019,03,19,13,37,20.50
2019,03,19,13,38,20.60
2019,03,19,13,39,20.60
2019,03,19,13,40,20.60
2019,03,19,13,41,20.70
2019,03,19,13,42,20.70
2019,03,19,13,43,20.70
2019,03,19,13,44,20.70
2019,03,19,13,45,20.70
2019,03,19,13,46,20.70
2019,03,19,13,47,20.70
2019,03,19,13,48,20.80
2019,03,19,13,49,20.80
2019,03,19,13,50,21.00
2019,03,19,13,51,21.00
2019,03,19,13,52,21.00
2019,03,19,13,53,21.00
2019,03,19,13,54,21.00
2019,03,19,13,55,21.00
2019,03,19,13,56,21.00
2019,03,19,13,57,21.00
2019,03,19,13,58,21.10
2019,03,19,13,59,21.20
2019,03,19,14,00,21.30
2019,03,19,14,01,21.30
2019,03,19,14,02,21.30
2019,03,19,14,03,21.30
2019,03,19,14,04,21.40
2019,03,19,14,05,21.40
2019,03,19,14,06,21.40
2019,03,19,14,07,21.40
2019,03,19,14,08,21.40
2019,03,19,14,09,21.30
2019,03,19,14,10,21.30
2019,03,19,14,11,21.40
2019,03,19,14,12,21.30
2019,03,19,14,13,21.30
2019,03,19,14,14,21.30
2019,03,19,14,15,21.10
2019,03,19,14,16,21.10
2019,03,19,14,17,21.10
2019,03,19,14,18,21.20
2019,03,19,14,19,21.20
2019,03,19,14,20,21.20
2019,03,19,14,21,21.30
2019,03,19,14,22,21.20
2019,03,19,14,23,21.20
2019,03,19,14,24,21.20
2019,03,19,14,25,21.20
2019,03,19,14,26,21.20
2019,03,19,14,27,21.30
2019,03,19,14,28,21.20
2019,03,19,14,29,21.20
2019,03,19,14,30,21.30
2019,03,19,14,31,21.30
2019,03,19,14,32,21.20
2019,03,19,14,33,21.30
2019,03,19,14,34,21.30
2019,03,19,14,35,21.30
2019,03,19,14,36,21.40
2019,03,19,14,37,21.40
2019,03,19,14,38,21.30
2019,03,19,14,39,21.30
2019,03,19,14,40,21.30
2019,03,19,14,41,21.30
2019,03,19,14,42,21.30
2019,03,19,14,43,21.30
2019,03,19,14,44,21.30
2019,03,19,14,45,21.30
2019,03,19,14,46,21.40
2019,03,19,14,47,21.40
2019,03,19,14,48,21.50
2019,03,19,14,49,21.60
2019,03,19,14,50,21.60
2019,03,19,14,51,21.60
2019,03,19,14,52,21.70
2019,03,19,14,53,21.70
2019,03,19,14,54,21.70
2019,03,19,14,55,21.70
2019,03,19,14,56,21.80
2019,03,19,14,57,21.80
2019,03,19,14,58,21.80
2019,03,19,14,59,21.80
2019,03,19,15,00,21.80
2019,03,19,15,01,21.80
2019,03,19,15,02,21.80
2019,03,19,15,03,21.80
2019,03,19,15,04,21.80
2019,03,19,15,05,21.80
2019,03,19,15,06,21.80
2019,03,19,15,07,21.80
2019,03,19,15,08,21.90
2019,03,19,15,09,21.90
2019,03,19,15,10,22.00
2019,03,19,15,11,22.10
2019,03,19,15,12,22.20
2019,03,19,15,13,22.20
2019,03,19,15,14,22.00
2019,03,19,15,15,21.90
2019,03,19,15,16,21.80
2019,03,19,15,17,21.80
2019,03,19,15,18,21.80
2019,03,19,15,19,21.80
2019,03,19,15,20,21.80
2019,03,19,15,21,21.90
2019,03,19,15,22,22.00
2019,03,19,15,23,22.00
2019,03,19,15,24,22.10
2019,03,19,15,25,22.10
2019,03,19,15,26,22.20
2019,03,19,15,27,22.20
2019,03,19,15,28,22.20
2019,03,19,15,29,22.20
2019,03,19,15,30,22.10
2019,03,19,15,31,22.10
2019,03,19,15,32,22.10
2019,03,19,15,33,22.10
2019,03,19,15,34,22.20
2019,03,19,15,35,22.20
2019,03,19,15,36,22.30
2019,03,19,15,37,22.20
2019,03,19,15,38,22.20
2019,03,19,15,39,22.20
2019,03,19,15,40,22.20
2019,03,19,15,41,22.20
2019,03,19,15,42,22.20
2019,03,19,15,43,22.30
2019,03,19,15,44,22.30
2019,03,19,15,45,22.30
2019,03,19,15,46,22.30
2019,03,19,15,47,22.30
2019,03,19,15,48,22.30
2019,03,19,15,49,22.40
2019,03,19,15,50,22.40
2019,03,19,15,51,22.40
2019,03,19,15,52,22.40
2019,03,19,15,53,22.50
2019,03,19,15,54,22.50
2019,03,19,15,55,22.40
2019,03,19,15,56,22.40
2019,03,19,15,57,22.40
2019,03,19,15,58,22.40
2019,03,19,15,59,22.40
2019,03,19,16,00,22.30
2019,03,19,16,01,22.20
2019,03,19,16,02,22.10
2019,03,19,16,03,22.00
2019,03,19,16,04,22.00
2019,03,19,16,05,22.10
2019,03,19,16,06,22.10
2019,03,19,16,07,22.10
2019,03,19,16,08,22.20
2019,03,19,16,09,22.20
2019,03,19,16,10,22.20
2019,03,19,16,11,22.20
2019,03,19,16,12,22.20
2019,03,19,16,13,22.30
2019,03,19,16,14,22.30
2019,03,19,16,15,22.30
2019,03,19,16,16,22.40
2019,03,19,16,17,22.40
2019,03,19,16,18,22.40
2019,03,19,16,19,22.40
2019,03,19,16,20,22.40
2019,03,19,16,21,22.40
2019,03,19,16,22,22.50
2019,03,19,16,23,22.50
2019,03,19,16,24,22.40
2019,03,19,16,25,22.40
2019,03,19,16,26,22.40
2019,03,19,16,27,22.30
2019,03,19,16,28,22.30
2019,03,19,16,29,22.30
2019,03,19,16,30,22.40
2019,03,19,16,31,22.40
2019,03,19,16,32,22.50
2019,03,19,16,33,22.40
2019,03,19,16,34,22.30
2019,03,19,16,35,22.30
2019,03,19,16,36,22.40
2019,03,19,16,37,22.30
2019,03,19,16,38,22.30
2019,03,19,16,39,22.20
2019,03,19,16,40,22.20
2019,03,19,16,41,22.20
2019,03,19,16,42,22.20
2019,03,19,16,43,22.20
2019,03,19,16,44,22.20
2019,03,19,16,45,22.30
2019,03,19,16,46,22.30
2019,03,19,16,47,22.30
2019,03,19,16,48,22.40
2019,03,19,16,49,22.40
2019,03,19,16,50,22.40
2019,03,19,16,51,22.50
2019,03,19,16,52,22.50
2019,03,19,16,53,22.40
2019,03,19,16,54,22.30
2019,03,19,16,55,22.20
2019,03,19,16,56,22.20
2019,03,19,16,57,22.20
2019,03,19,16,58,22.20
2019,03,19,16,59,22.20
2019,03,19,17,00,22.20
2019,03,19,17,01,22.20
2019,03,19,17,02,22.30
2019,03,19,17,03,22.30
2019,03,19,17,04,22.40
2019,03,19,17,05,22.50
2019,03,19,17,06,22.50
2019,03,19,17,07,22.50
2019,03,19,17,08,22.40
2019,03,19,17,09,22.40
2019,03,19,17,10,22.50
2019,03,19,17,11,22.50
2019,03,19,17,12,22.50
2019,03,19,17,13,22.50
2019,03,19,17,14,22.50
2019,03,19,17,15,22.50
2019,03,19,17,16,22.50
2019,03,19,17,17,22.50
2019,03,19,17,18,22.50
2019,03,19,17,19,22.60
2019,03,19,17,20,22.60
2019,03,19,17,21,22.60
2019,03,19,17,22,22.70
2019,03,19,17,23,22.70
2019,03,19,17,24,22.70
2019,03,19,17,25,22.60
2019,03,19,17,26,22.60
2019,03,19,17,27,22.50
2019,03,19,17,28,22.50
2019,03,19,17,29,22.40
2019,03,19,17,30,22.30
2019,03,19,17,31,22.30
2019,03,19,17,32,22.20
2019,03,19,17,33,22.20
2019,03,19,17,34,22.10
2019,03,19,17,35,22.10